EW7633 Weather Reports


time (UTC)temp
C
wind
direction
speed
KPH
gust
KPH
rain 1hr
cm
rain 24hr
cm
rain mn
cm
humidity
%
barometer
mb
20260507094506 6 254 8.0 19.3 0.00 0.00 0.00 79 1015.6
20260507093102 6 257 9.7 24.1 0.00 0.00 0.00 78 1015.6
20260507091557 6 269 8.0 16.1 0.00 0.00 0.00 77 1015.8
20260507090059 6 217 9.7 16.1 0.00 0.00 0.00 76 1016.0
20260507084603 7 247 6.4 19.3 0.00 0.00 0.00 75 1016.1
20260507083050 7 248 9.7 19.3 0.00 0.00 0.00 74 1016.2
20260507081544 7 239 8.0 19.3 0.00 0.00 0.00 73 1016.3
20260507080049 7 193 8.0 20.9 0.00 0.00 0.00 73 1016.6
20260507074539 7 231 8.0 22.5 0.00 0.00 0.00 73 1016.8
20260507073047 7 265 8.0 20.9 0.00 0.00 0.00 72 1017.0
20260507071532 7 258 8.0 19.3 0.00 0.00 0.00 71 1017.2
20260507070034 8 210 9.7 17.7 0.00 0.00 0.00 70 1017.3
20260507064526 8 248 9.7 19.3 0.00 0.00 0.00 69 1017.5
20260507063026 8 255 8.0 17.7 0.00 0.00 0.00 68 1017.6
20260507061522 8 265 9.7 17.7 0.00 0.00 0.00 66 1017.8
20260507060022 8 252 9.7 17.7 0.00 0.00 0.00 64 1017.9
20260507054517 8 271 8.0 22.5 0.00 0.00 0.00 60 1018.0
20260507053014 8 229 9.7 20.9 0.00 0.00 0.00 59 1018.0
20260507051511 9 252 8.0 16.1 0.00 0.00 0.00 58 1018.0
20260507050024 9 261 8.0 19.3 0.00 0.00 0.00 57 1017.9
20260507044506 9 252 6.4 16.1 0.00 0.00 0.00 56 1018.1
20260507043005 9 232 9.7 16.1 0.00 0.00 0.00 54 1018.3
20260507041504 9 259 8.0 17.7 0.00 0.00 0.00 51 1018.4
20260507040003 8 259 6.4 12.9 0.00 0.00 0.00 49 1018.4
20260507034506 9 262 4.8 12.9 0.00 0.00 0.00 45 1018.5
20260507033002 9 250 1.6 8.0 0.00 0.00 0.00 43 1018.6
20260507031501 9 245 1.6 4.8 0.00 0.00 0.00 43 1018.7
20260507030105 9 242 0.0 3.2 0.00 0.00 0.00 43 1018.6
20260507024600 10 238 0.0 3.2 0.00 0.00 0.00 41 1018.5
20260507021631 10 267 0.0 3.2 0.00 0.00 0.00 38 1018.3
20260507021528 10 266 0.0 3.2 0.00 0.00 0.00 38 1018.3
20260507020111 11 263 0.0 3.2 0.00 0.00 0.00 36 1018.2
20260507014621 12 266 1.6 3.2 0.00 0.00 0.00 34 1018.2
20260507013101 12 267 0.0 4.8 0.00 0.00 0.00 33 1018.1
20260507011601 13 268 1.6 6.4 0.00 0.00 0.00 32 1018.2
20260507010155 13 267 3.2 11.3 0.00 0.00 0.00 30 1018.2
20260507004554 14 256 3.2 11.3 0.00 0.00 0.00 29 1018.3
20260507003053 15 247 3.2 6.4 0.00 0.00 0.00 28 1018.3
20260507001602 14 274 4.8 14.5 0.00 0.00 0.00 30 1018.4
20260507000116 15 294 4.8 17.7 0.00 0.00 0.00 30 1018.6
20260506234610 16 282 14.5 24.1 0.00 0.00 0.00 27 1018.5
20260506234504 16 245 9.7 24.1 0.00 0.00 0.00 27 1018.5
20260506233051 15 329 4.8 9.7 0.00 0.00 0.00 29 1018.6
20260506233002 15 268 4.8 9.7 0.00 0.00 0.00 30 1018.6
20260506231549 15 223 8.0 17.7 0.00 0.00 0.00 28 1018.8
20260506230059 15 311 8.0 16.1 0.00 0.00 0.00 30 1019.0
20260506224550 15 334 6.4 12.9 0.00 0.00 0.00 30 1019.0
20260506223158 14 272 6.4 19.3 0.00 0.00 0.00 29 1019.1
20260506221603 15 310 9.7 22.5 0.00 0.00 0.00 27 1019.2
20260506220047 15 289 14.5 25.7 0.00 0.00 0.00 27 1019.3
20260506214600 15 240 9.7 24.1 0.00 0.00 0.00 27 1019.4
20260506213045 15 316 6.4 14.5 0.00 0.00 0.00 28 1019.5
20260506211544 13 281 8.0 25.7 0.00 0.00 0.00 29 1019.8
20260506210044 13 270 1.6 17.7 0.00 0.00 0.00 30 1020.0
20260506204548 13 304 6.4 22.5 0.00 0.00 0.00 29 1020.1
20260506203036 13 349 4.8 17.7 0.00 0.00 0.00 30 1020.4
20260506201549 13 268 12.9 20.9 0.00 0.00 0.00 30 1020.5
20260506200036 13 327 11.3 16.1 0.00 0.00 0.00 29 1020.7
20260506194533 13 268 12.9 20.9 0.00 0.00 0.00 29 1020.9
20260506193051 13 323 8.0 17.7 0.00 0.00 0.00 30 1020.8
20260506191533 13 259 6.4 20.9 0.00 0.00 0.00 32 1021.0
20260506190032 13 304 8.0 19.3 0.00 0.00 0.00 33 1021.1
20260506184536 12 328 8.0 27.4 0.00 0.00 0.00 32 1021.3
20260506183032 12 311 8.0 17.7 0.00 0.00 0.00 32 1021.2
20260506181540 13 307 3.2 27.4 0.00 0.00 0.00 32 1021.3
20260506180029 14 284 6.4 17.7 0.00 0.00 0.00 32 1021.6
20260506174534 13 320 6.4 22.5 0.00 0.00 0.00 30 1021.8
20260506173047 12 327 4.8 20.9 0.00 0.00 0.00 31 1021.7
20260506171528 12 294 11.3 20.9 0.00 0.00 0.00 32 1022.0
20260506170020 12 291 4.8 25.7 0.00 0.00 0.00 33 1022.1
20260506164519 12 306 11.3 20.9 0.00 0.00 0.00 31 1022.2
20260506163032 11 304 4.8 16.1 0.00 0.00 0.00 32 1022.3
20260506161514 11 256 4.8 16.1 0.00 0.00 0.00 34 1022.5
20260506160013 11 228 8.0 16.1 0.00 0.00 0.00 33 1022.4
20260506154510 11 289 6.4 12.9 0.00 0.00 0.00 35 1022.3
20260506153009 10 274 1.6 14.5 0.00 0.00 0.00 36 1022.4
20260506151509 10 306 1.6 12.9 0.00 0.00 0.00 38 1022.3
20260506150013 10 341 1.6 8.0 0.00 0.00 0.00 40 1022.4
20260506144528 10 281 1.6 9.7 0.00 0.00 0.00 39 1022.3
20260506143002 9 306 0.0 6.4 0.00 0.00 0.00 39 1022.5
20260506141602 8 360 0.0 9.7 0.00 0.00 0.00 42 1022.3
20260506140058 8 252 1.6 6.4 0.00 0.00 0.00 43 1022.3
20260506134555 8 292 0.0 4.8 0.00 0.00 0.00 43 1022.1
20260506133107 8 30 1.6 4.8 0.00 0.00 0.00 44 1021.9
20260506131553 7 321 0.0 4.8 0.00 0.00 0.00 49 1021.9
20260506130101 6 286 0.0 4.8 0.00 0.00 0.00 55 1021.7
20260506124550 5 319 0.0 3.2 0.00 0.00 0.00 59 1021.7
20260506121546 3 311 0.0 3.2 0.00 0.00 0.00 63 1021.1
20260506120044 3 314 0.0 0.0 0.00 0.00 0.00 65 1020.9
20260506114547 3 314 0.0 3.2 0.00 0.00 0.00 68 1020.7
20260506113041 3 314 0.0 3.2 0.00 0.00 0.00 64 1020.5
20260506111539 3 313 0.0 0.0 0.00 0.00 0.00 64 1020.4
20260506110048 3 313 0.0 0.0 0.00 0.00 0.00 61 1020.3
20260506104556 3 313 0.0 0.0 0.00 0.00 0.00 60 1020.1
20260506103038 4 313 0.0 0.0 0.00 0.00 0.00 60 1020.1
20260506101529 5 313 0.0 0.0 0.00 0.00 0.00 58 1020.2
20260506100027 5 313 0.0 0.0 0.00 0.00 0.00 59 1020.1
20260506094531 5 313 0.0 0.0 0.00 0.00 0.00 55 1020.0